Tracking 30261 objects as of 18-Feb-2025
HD Live streaming from Space Station
objects crossing your sky now

STARLINK-5149

Track STARLINK-5149 now!
10-day predictions
STARLINK-5149 is classified as:


NORAD ID: 53981
Int'l Code: 2022-125T
Perigee: 546.0 km
Apogee: 547.8 km
Inclination: 53.2 °
Period: 95.4 minutes
Semi major axis: 6917 km
RCS: Unknown
Launch date: October 5, 2022
Source: United States (US)
Launch site: AIR FORCE WESTERN TEST RANGE (AFWTR)
Your satellite tracking list
Your tracking list is empty




NASA's NSSDC Master Catalog

Two Line Element Set (TLE):
1 53981U 22125T   25048.94954403 -.00000003  00000-0  17901-4 0  9991
2 53981  53.2167 131.0604 0001278  80.9953 279.1184 15.08838173131594
Source of the keplerian elements: AFSPC